Regional Weather Roundup
Issued by NWS Green Bay, WI

Home | Current Version | Previous Version | Text Only | Print | Product List | Glossary On
Versions: 1 2 3 4 5 6 7 8 9 10 11 12 13 14 15 16 17 18 19 20 21 22 23 24 25 26 27 28 29 30 31 32 33 34 35 36 37 38 39 40 41 42 43 44 45 46 47 48 49 50
939
ASUS43 KGRB 101311
RWRGRB

NORTH-CENTRAL AND NORTHEAST WISCONSIN REGIONAL WEATHER ROUNDUP
NATIONAL WEATHER SERVICE GREEN BAY WI
700 AM CST WED FEB 10 2016

WIZ005-009-010>012-018-019-101400-
NORTH CENTRAL WISCONSIN

CITY           SKY/WX    TMP DP  RH WIND       PRES   REMARKS
IRONWOOD       CLOUDY     5   1  85 N6        29.98R WCI  -6
MANITOWISH WTR FLURRIES   2  -2  81 CALM      29.95R
ARBOR VITAE    CLOUDY     4  -1  79 N5        29.94R WCI  -5
EAGLE RIVER    CLOUDY     3  -6  68 CALM      29.93R
LAND O LAKES   FLURRIES   2  -3  80 N8        29.94R WCI -11
RHINELANDER    CLOUDY     4  -3  73 N6        29.93R WCI  -7
PHILLIPS       CLOUDY    -2  -7  81 NW3       29.98R
ANTIGO         CLOUDY     4  -6  65 N14       29.93R WCI -14
TOMAHAWK       CLOUDY     3  -3  77 NW9       29.97R WCI -12
MERRILL        CLOUDY     4  -2  74 NW9       29.98R WCI -10
$$

WIZ013-073-101400-
NORTHEAST WISCONSIN

CITY           SKY/WX    TMP DP  RH WIND       PRES   REMARKS
IRON MOUNTAIN  CLOUDY     2  -6  69 NW13      29.93R WCI -15
MARINETTE      CLEAR      5  -6  61 NW10      29.95S WCI -10
OCONTO         PTCLDY     6  -6  57 NW9G18    29.98R WCI  -8
$$

WIZ017-030-035>037-045-101400-
CENTRAL WISCONSIN

CITY           SKY/WX    TMP DP  RH WIND       PRES   REMARKS
MEDFORD        CLOUDY    -3  -7  85 NW6       29.97R WCI -15
WAUSAU         CLOUDY     7  -2  66 NW12      29.97R WCI  -8
MOSINEE        CLOUDY     5   0  78 NW10      29.98R WCI -10
MARSHFIELD     MOCLDY     1  -7  68 NW12      29.99R WCI -16
WISC RAPIDS    CLOUDY     6  -3  66 NW9       30.02R WCI  -8
STEVENS POINT  FLURRIES   5  -1  75 NW5       29.99R WCI  -4
WAUPACA        CLOUDY    10  -3  54 N10       30.00R WCI  -3
SHAWANO        CLOUDY    10  -3  54 NW7       29.99R WCI  -1
CLINTONVILLE   CLOUDY    10  -6  48 N7        29.99R WCI   0
WAUTOMA        CLOUDY     7  -3  63 NW7       30.01R WCI  -4
$$

WIZ038-039-048-051-101400-
FOX VALLEY

CITY           SKY/WX    TMP DP  RH WIND       PRES   REMARKS
NWS GREEN BAY  CLEAR      2  -6  69 NW7       29.98R WCI -11
APPLETON       PTCLDY     7  -8  51 NW12      29.95R WCI  -9
OSHKOSH        CLOUDY     8  -4  58 N13       29.98R WCI  -8
FOND DU LAC    CLOUDY     9  -2  61 NW10      29.98R WCI  -5
$$

WIZ022-050-052-101400-
EAST CENTRAL WISCONSIN

CITY           SKY/WX    TMP DP  RH WIND       PRES   REMARKS
EPHRAIM        FAIR       7  -3  63 NW12G21   29.91S WCI  -9
STURGEON BAY   CLEAR      5  -8  56 NW15G23   29.96R WCI -13
MANITOWOC      PTCLDY     6  -3  66 NW13      29.97R WCI -10
SHEBOYGAN      PTCLDY     6  -5  60 NW10      29.96R WCI  -9
$$

LMZ563-521-522-541>543-101400-
LAKESHORE

STATION/POSITION TIME  TEMP    WIND        PRES    VSBY  WAVE
                       AIR SEA DIR/SP/G                  HT/PER
                 (UTC) (F)     (DEG/KT/KT) (MB)    (MI)  (FT/S)
SHEBOYGAN LKSHOR 1300    8     320/ 16/ 19 1016.3R
KEWAUNEE LKSHORE 1200    7     310/ 11/ 16 1013.4R
ALGOMA MARINA    1211          320/  9/ 13   N/A
CHAMBERS ISLAND  1200    8     300/ 14/ 21 1013.5
MENOMINEE LKSHOR 1200    6     300/ 12     1013.1R
$$




USA.gov is the U.S. government's official web portal to all federal, state and local government web resources and services.